Tracking 19831 objects as of 23-Aug-2019
HD Live streaming from Space Station
objects crossing your sky now

FENGYUN 1C DEB

Track FENGYUN 1C DEB now!
10-day predictions


NORAD ID: 30575
Int'l Code: 1999-025ALR
Perigee: 754.3 km
Apogee: 847.5 km
Inclination: 99.2 °
Period: 100.7 minutes
Semi major axis: 7171 km
RCS: 0.029 m2 (small)
Launch date: May 10, 1999
Source: People's Republic of China (PRC)
Launch site: Taiyaun Space Center, China (TSC)

Note: This is SATELLITE DEBRIS
aabbcc
Your satellite tracking list
Your tracking list is empty




NASA's NSSDC Master Catalog

Two Line Element Set (TLE):
1 30575U 99025ALR 19234.71946833 +.00000289 +00000-0 +12922-3 0  9993
2 30575 099.1590 151.0699 0064972 070.4429 322.4580 14.29390772652304
Source of the keplerian elements: AFSPC